• In Deutschland
  • Länderverzeichnis
  • Für 7 Tage
  • Wassertemperatur
  • Satellitenkarten
  • Wetterkarte
  • Widgets
  • user-avatar
    Anmelden

    Stündliche Wetter Prutz

    Heute, 16 Januar, Dienstag

    Zeit Temperatur Niederschläge Wind Luftdruck Luftfeuchtigkeit
    00:00 -8°C° 0,1 mm 4 m/S 626 mmHg 84%
    01:00 -8°C° 0 mm 4 m/S 625 mmHg 84%
    02:00 -8°C° 0,2 mm 4 m/S 625 mmHg 85%
    03:00 -8°C° 0,2 mm 4 m/S 624 mmHg 86%
    04:00 -7°C° 0,2 mm 3 m/S 624 mmHg 86%
    05:00 -6°C° 0,3 mm 3 m/S 623 mmHg 87%
    06:00 -6°C° 0,3 mm 3 m/S 623 mmHg 88%
    07:00 -5°C° 0,3 mm 3 m/S 623 mmHg 88%
    08:00 -5°C° 0,5 mm 3 m/S 623 mmHg 88%
    09:00 -4°C° 0,5 mm 3 m/S 623 mmHg 89%
    10:00 -2°C° 0,5 mm 3 m/S 623 mmHg 89%
    11:00 -1°C° 0,3 mm 3 m/S 623 mmHg 87%
    12:00 -2°C° 0,3 mm 4 m/S 622 mmHg 86%
    13:00 -1°C° 0,3 mm 4 m/S 622 mmHg 85%
    14:00 -1°C° 0,7 mm 4 m/S 622 mmHg 87%
    15:00 0°C° 0,7 mm 3 m/S 622 mmHg 89%
    16:00 -1°C° 0,7 mm 3 m/S 622 mmHg 91%
    17:00 -1°C° 0,7 mm 3 m/S 621 mmHg 91%
    18:00 -2°C° 0,7 mm 3 m/S 621 mmHg 91%
    19:00 -2°C° 0,7 mm 3 m/S 621 mmHg 91%
    20:00 -2°C° 0,9 mm 3 m/S 621 mmHg 92%
    21:00 -2°C° 0,9 mm 3 m/S 621 mmHg 92%
    22:00 -2°C° 0,9 mm 2 m/S 621 mmHg 93%
    23:00 -4°C° 0,8 mm 3 m/S 620 mmHg 93%

    Morgen, 17 Januar, Mittwoch

    Zeit Temperatur Niederschläge Wind Luftdruck Luftfeuchtigkeit
    00:00 -4°C° 0,8 mm 3 m/S 620 mmHg 93%
    01:00 -4°C° 0,8 mm 3 m/S 620 mmHg 93%
    02:00 -5°C° 0,8 mm 3 m/S 619 mmHg 93%
    03:00 -5°C° 0,8 mm 3 m/S 619 mmHg 93%
    04:00 -5°C° 0,8 mm 3 m/S 619 mmHg 94%
    05:00 -6°C° 1,1 mm 3 m/S 619 mmHg 94%
    06:00 -6°C° 1,1 mm 3 m/S 619 mmHg 94%
    07:00 -8°C° 1,1 mm 4 m/S 619 mmHg 94%
    08:00 -8°C° 1,1 mm 4 m/S 619 mmHg 94%
    09:00 -10°C° 1,1 mm 5 m/S 620 mmHg 93%
    10:00 -10°C° 1,1 mm 5 m/S 620 mmHg 93%
    11:00 -11°C° 0,7 mm 6 m/S 621 mmHg 92%
    12:00 -11°C° 0,7 mm 6 m/S 621 mmHg 92%
    13:00 -12°C° 0,7 mm 6 m/S 622 mmHg 91%
    14:00 -12°C° 0,6 mm 6 m/S 622 mmHg 91%
    15:00 -13°C° 0,6 mm 7 m/S 623 mmHg 91%
    16:00 -13°C° 0,6 mm 7 m/S 624 mmHg 91%
    17:00 -12°C° 0,6 mm 6 m/S 624 mmHg 92%
    18:00 -12°C° 0,6 mm 5 m/S 625 mmHg 92%
    19:00 -12°C° 0,6 mm 5 m/S 625 mmHg 92%
    20:00 -11°C° 0,7 mm 4 m/S 626 mmHg 93%
    21:00 -11°C° 0,7 mm 4 m/S 626 mmHg 93%
    22:00 -11°C° 0,7 mm 4 m/S 627 mmHg 94%
    23:00 -10°C° 0,7 mm 4 m/S 627 mmHg 93%

    übermorgen, 18 Januar, Donnerstag

    Zeit Temperatur Niederschläge Wind Luftdruck Luftfeuchtigkeit
    00:00 -10°C° 0,7 mm 4 m/S 627 mmHg 93%
    01:00 -9°C° 0,7 mm 3 m/S 628 mmHg 93%
    02:00 -9°C° 0,6 mm 3 m/S 628 mmHg 92%
    03:00 -9°C° 0,6 mm 3 m/S 627 mmHg 92%
    04:00 -9°C° 0,6 mm 3 m/S 627 mmHg 91%
    05:00 -9°C° 0,2 mm 3 m/S 627 mmHg 89%
    06:00 -9°C° 0,2 mm 3 m/S 627 mmHg 87%
    07:00 -8°C° 0,2 mm 3 m/S 626 mmHg 85%
    08:00 -7°C° 0,5 mm 3 m/S 627 mmHg 86%
    09:00 -5°C° 0,5 mm 3 m/S 627 mmHg 87%
    10:00 -4°C° 0,5 mm 3 m/S 627 mmHg 89%
    11:00 -2°C° 0,3 mm 3 m/S 627 mmHg 89%
    12:00 -1°C° 0,3 mm 3 m/S 626 mmHg 90%
    13:00 0°C° 0,3 mm 3 m/S 626 mmHg 90%
    14:00 0°C° 0,3 mm 3 m/S 626 mmHg 91%
    15:00 0°C° 0,3 mm 3 m/S 626 mmHg 91%
    16:00 0°C° 0,3 mm 3 m/S 625 mmHg 92%
    17:00 0°C° 0,4 mm 3 m/S 625 mmHg 91%
    18:00 0°C° 0,4 mm 3 m/S 625 mmHg 90%
    19:00 0°C° 0,4 mm 3 m/S 625 mmHg 89%
    20:00 -1°C° 0,4 mm 3 m/S 625 mmHg 89%
    21:00 -1°C° 0,4 mm 3 m/S 625 mmHg 88%
    22:00 -1°C° 0,4 mm 3 m/S 624 mmHg 88%
    23:00 -1°C° 1 mm 3 m/S 624 mmHg 89%

    19 Januar, Freitag

    Zeit Temperatur Niederschläge Wind Luftdruck Luftfeuchtigkeit
    00:00 -1°C° 1 mm 3 m/S 624 mmHg 90%
    01:00 -1°C° 1 mm 2 m/S 624 mmHg 92%
    02:00 -1°C° 0,6 mm 2 m/S 624 mmHg 92%
    03:00 -1°C° 0,6 mm 2 m/S 623 mmHg 92%
    04:00 -1°C° 0,6 mm 2 m/S 623 mmHg 92%
    05:00 -1°C° 0,3 mm 2 m/S 623 mmHg 91%
    06:00 -2°C° 0,3 mm 2 m/S 623 mmHg 90%
    07:00 -2°C° 0,3 mm 2 m/S 623 mmHg 89%
    08:00 -2°C° 1,4 mm 2 m/S 623 mmHg 92%
    09:00 -2°C° 1,4 mm 2 m/S 623 mmHg 94%
    10:00 -2°C° 1,4 mm 2 m/S 624 mmHg 96%
    11:00 -2°C° 1 mm 2 m/S 623 mmHg 96%
    12:00 -2°C° 1 mm 2 m/S 623 mmHg 97%
    13:00 -3°C° 1 mm 2 m/S 623 mmHg 97%
    14:00 -3°C° 0,9 mm 2 m/S 623 mmHg 96%
    15:00 -4°C° 0,9 mm 2 m/S 623 mmHg 96%
    16:00 -4°C° 0,9 mm 2 m/S 623 mmHg 96%
    17:00 -5°C° 0,6 mm 2 m/S 623 mmHg 96%
    18:00 -5°C° 0,6 mm 2 m/S 623 mmHg 96%
    19:00 -6°C° 0,6 mm 2 m/S 622 mmHg 96%
    20:00 -7°C° 0,3 mm 2 m/S 622 mmHg 96%
    21:00 -7°C° 0,3 mm 2 m/S 622 mmHg 96%
    22:00 -8°C° 0,3 mm 2 m/S 622 mmHg 96%
    23:00 -8°C° 0,2 mm 2 m/S 622 mmHg 95%

    20 Januar, Samstag

    Zeit Temperatur Niederschläge Wind Luftdruck Luftfeuchtigkeit
    00:00 -8°C° 0,2 mm 1 m/S 622 mmHg 94%
    01:00 -8°C° 0,2 mm 1 m/S 621 mmHg 93%
    02:00 -9°C° 0 mm 1 m/S 621 mmHg 92%
    03:00 -9°C° 0 mm 1 m/S 620 mmHg 90%
    04:00 -10°C° 0 mm 1 m/S 620 mmHg 89%
    05:00 -10°C° 0,1 mm 1 m/S 620 mmHg 88%
    06:00 -10°C° 0,1 mm 1 m/S 620 mmHg 87%
    07:00 -10°C° 0,1 mm 1 m/S 620 mmHg 86%
    08:00 -9°C° 0,1 mm 1 m/S 620 mmHg 87%
    09:00 -9°C° 0,1 mm 1 m/S 621 mmHg 87%
    10:00 -8°C° 0,1 mm 1 m/S 621 mmHg 88%
    11:00 -8°C° 0,2 mm 2 m/S 621 mmHg 89%
    12:00 -8°C° 0,2 mm 2 m/S 621 mmHg 89%
    13:00 -7°C° 0,2 mm 2 m/S 621 mmHg 90%
    14:00 -8°C° 0,4 mm 2 m/S 621 mmHg 91%
    15:00 -8°C° 0,4 mm 2 m/S 622 mmHg 93%
    16:00 -8°C° 0,4 mm 2 m/S 622 mmHg 94%
    17:00 -9°C° 0,6 mm 2 m/S 622 mmHg 95%
    18:00 -9°C° 0,6 mm 2 m/S 623 mmHg 95%
    19:00 -9°C° 0,6 mm 2 m/S 623 mmHg 96%
    20:00 -10°C° 0,6 mm 2 m/S 623 mmHg 96%
    21:00 -10°C° 0,6 mm 2 m/S 624 mmHg 96%
    22:00 -10°C° 0,6 mm 2 m/S 624 mmHg 96%
    23:00 -10°C° 0,5 mm 2 m/S 624 mmHg 96%

    21 Januar, Sonntag

    Zeit Temperatur Niederschläge Wind Luftdruck Luftfeuchtigkeit
    00:00 -12°C° 0,5 mm 2 m/S 624 mmHg 96%
    01:00 -12°C° 0,5 mm 2 m/S 624 mmHg 96%
    02:00 -12°C° 0,3 mm 2 m/S 624 mmHg 96%
    03:00 -13°C° 0,3 mm 2 m/S 624 mmHg 96%
    04:00 -13°C° 0,3 mm 2 m/S 624 mmHg 96%
    05:00 -13°C° 0,1 mm 2 m/S 624 mmHg 96%
    06:00 -14°C° 0,1 mm 2 m/S 624 mmHg 96%
    07:00 -14°C° 0,1 mm 2 m/S 624 mmHg 96%
    08:00 -14°C° 0,1 mm 2 m/S 624 mmHg 95%
    09:00 -13°C° 0,1 mm 2 m/S 625 mmHg 94%
    10:00 -13°C° 0,1 mm 2 m/S 625 mmHg 93%
    11:00 -12°C° 0 mm 2 m/S 625 mmHg 90%
    12:00 -10°C° 0 mm 2 m/S 625 mmHg 88%
    13:00 -12°C° 0 mm 3 m/S 626 mmHg 86%
    14:00 -12°C° 0,1 mm 3 m/S 626 mmHg 88%
    15:00 -12°C° 0,1 mm 2 m/S 626 mmHg 90%
    16:00 -12°C° 0,1 mm 2 m/S 626 mmHg 92%
    17:00 -13°C° 0,1 mm 2 m/S 626 mmHg 93%
    18:00 -15°C° 0,1 mm 2 m/S 626 mmHg 94%
    19:00 -16°C° 0,1 mm 2 m/S 626 mmHg 95%
    20:00 -17°C° 0,1 mm 2 m/S 627 mmHg 94%
    21:00 -17°C° 0,1 mm 2 m/S 627 mmHg 94%
    22:00 -18°C° 0,1 mm 2 m/S 627 mmHg 93%
    23:00 -18°C° 0 mm 2 m/S 627 mmHg 92%
    Mehr zeigen